This is the latest recevied weather packets stored in our database for station/object W9QL-13. If no packets are shown the sender has not sent any weather packets the latest 1 day(s).
| Time | Temp. | Humidity | Pressure | Rain* | Wind** | Luminosity | Snow |
|---|---|---|---|---|---|---|---|
| 1778029923 | 11.11° C | 37% | 1007.5 hPa | 0 mm | - | - | - |
| 1778029593 | 11.11° C | 37% | 1007.4 hPa | 0 mm | - | - | - |
| 1778029293 | 11.11° C | 37% | 1007.5 hPa | 0 mm | - | - | - |
| 1778028963 | 11.67° C | 37% | 1007.4 hPa | 0 mm | - | - | - |
| 1778028663 | 11.67° C | 37% | 1007.4 hPa | 0 mm | - | - | - |
| 1778028365 | 11.67° C | 37% | 1007.4 hPa | 0 mm | - | - | - |
| 1778028063 | 11.67° C | 37% | 1007.3 hPa | 0 mm | - | - | - |
| 1778027733 | 11.67° C | 37% | 1007.3 hPa | 0 mm | - | - | - |
| 1778027433 | 11.67° C | 37% | 1007.3 hPa | 0 mm | - | - | - |
| 1778027103 | 11.67° C | 37% | 1007.3 hPa | 0 mm | - | - | - |
| 1778026803 | 12.22° C | 37% | 1007.2 hPa | 0 mm | - | - | - |
| 1778026473 | 12.22° C | 37% | 1007.3 hPa | 0 mm | - | - | - |
| 1778026143 | 12.22° C | 37% | 1007.2 hPa | 0 mm | - | - | - |
| 1778025843 | 12.22° C | 37% | 1007.2 hPa | 0 mm | - | - | - |
| 1778025543 | 12.22° C | 37% | 1007.2 hPa | 0 mm | - | - | - |
| 1778025243 | 12.22° C | 37% | 1007.2 hPa | 0 mm | - | - | - |
| 1778018135 | 13.33° C | 35% | 1007.5 hPa | 0 mm | - | - | - |
| 1778015672 | 13.89° C | 32% | 1007.4 hPa | 0 mm | - | - | - |
| 1778015072 | 13.89° C | 32% | 1007.4 hPa | 0 mm | - | - | - |
| 1778014745 | 13.89° C | 33% | 1007.4 hPa | 0 mm | - | - | - |
| 1778014142 | 13.89° C | 34% | 1007.3 hPa | 0 mm | - | - | - |
| 1778013842 | 13.89° C | 34% | 1007.4 hPa | 0 mm | - | - | - |
| 1778013212 | 13.89° C | 31% | 1007.6 hPa | 0 mm | - | - | - |
| 1778012882 | 13.89° C | 33% | 1007.6 hPa | 0 mm | - | - | - |
| 1778012222 | 13.89° C | 32% | 1007.5 hPa | 0 mm | - | - | - |
* Rain latest hour (hover to see other rain measurements)
** Current wind speed in m/s (hover to see current wind gust speed)